Weather History for KHOB - October, 2012

Change the Weather History Date:

Tuesday, October 9, 2012

  Actual Average Record
Temperature  
Mean Temperature 66 °F -  
Max Temperature 86 °F 77 °F 104 °F (2000)
Min Temperature 46 °F 51 °F 38 °F (1952)
Cooling Degree Days 1    
Growing Degree Days 16 (Base 50)    
Moisture  
Dew Point 41 °F    
Average Humidity 55    
Maximum Humidity 100    
Minimum Humidity 13    
Precipitation  
Precipitation 0.00 in - - ()
Sea Level Pressure  
Sea Level Pressure 30.01 in    
Wind  
Wind Speed 4 mph (SW)    
Max Wind Speed 16 mph    
Max Gust Speed 22 mph    
Visibility 10 miles    
Events      
Averages and records for this station are not official NWS values.
T = Trace of Precipitation, MM = Missing Value Source: NWS Daily Summary

Daily Weather History Graph

Daily Weather History Graph

Search for Another Location

Airport or City:

Trip Planner

Search our weather history database for the weather conditions in past years. The results will help you decide how hot, cold, wet, or windy it might be!

Date:

Astronomy

Oct. 09, 2012 Rise Set
Actual Time 6:52 AM MDT 6:26 PM MDT
Civil Twilight 6:28 AM MDT 6:51 PM MDT
Nautical Twilight 5:59 AM MDT 7:19 PM MDT
Astronomical Twilight 5:31 AM MDT 7:48 PM MDT
Moon 12:50 AM MDT (10/9) 2:38 PM MDT (10/9)
Length of Visible Light 12h 23m
Length of Day
11h 33m
Last Quarter, 36% of the Moon is Illuminated
Oct 9
Last Quarter
Oct 15
New
Oct 21
First Quarter
Oct 29
Full
Nov 6
Last Quarter

Hourly Weather History & Observations

Time (MDT) Temp. Windchill Dew Point Humidity Pressure Visibility Wind Dir Wind Speed Gust Speed Precip Events Conditions
12:15 AM 48.2 °F - 44.6 °F 87% 30.01 in 10.0 mi Calm Calm - N/A   Clear
12:35 AM 48.2 °F - 44.6 °F 87% 30.01 in 10.0 mi Calm Calm - N/A   Clear
12:55 AM 48.2 °F - 44.6 °F 87% 30.00 in 10.0 mi Calm Calm - N/A   Clear
1:15 AM 48.2 °F - 44.6 °F 87% 30.00 in 10.0 mi Calm Calm - N/A   Clear
1:35 AM 48.2 °F - 46.4 °F 93% 29.99 in 10.0 mi Calm Calm - N/A   Clear
2:15 AM 48.2 °F - 46.4 °F 93% 29.99 in 10.0 mi SSW 5.8 mph - N/A   Clear
2:35 AM 48.2 °F - 46.4 °F 93% 29.99 in 10.0 mi SSW 5.8 mph - N/A   Clear
2:55 AM 48.2 °F - 46.4 °F 93% 29.99 in 10.0 mi Calm Calm - N/A   Clear
3:15 AM 48.2 °F - 46.4 °F 93% 29.98 in 10.0 mi Calm Calm - N/A   Clear
3:35 AM 48.2 °F - 46.4 °F 93% 29.98 in 10.0 mi Calm Calm - N/A   Clear
3:55 AM 48.2 °F - 46.4 °F 93% 29.98 in 10.0 mi SW 6.9 mph - N/A   Clear
4:15 AM 48.2 °F - 46.4 °F 93% 29.98 in 10.0 mi SSW 3.5 mph - N/A   Clear
4:35 AM 48.2 °F - 46.4 °F 93% 29.98 in 10.0 mi Calm Calm - N/A   Clear
4:55 AM 48.2 °F - 46.4 °F 93% 29.98 in 10.0 mi Calm Calm - N/A   Clear
5:50 AM 48.2 °F - 44.6 °F 87% 29.99 in 10.0 mi SSW 6.9 mph - N/A   Clear
6:50 AM 46.4 °F 43.5 °F 46.4 °F 100% 30.01 in 10.0 mi SSW 5.8 mph - N/A   Clear
7:50 AM 50.0 °F - 48.2 °F 94% 30.02 in 10.0 mi Calm Calm - N/A   Clear
8:55 AM 64.4 °F - 46.4 °F 52% 30.04 in 10.0 mi SW 6.9 mph - N/A   Clear
9:50 AM 75.2 °F - 41.0 °F 29% 30.05 in 10.0 mi WSW 13.8 mph - N/A   Clear
10:55 AM 80.6 °F - 37.4 °F 21% 30.03 in 10.0 mi WNW 16.1 mph 21.9 mph N/A   Clear
11:50 AM 84.2 °F - 37.4 °F 19% 30.02 in 10.0 mi West 13.8 mph - N/A   Clear
12:50 PM 84.2 °F - 32.0 °F 15% 30.01 in 10.0 mi West 13.8 mph - N/A   Clear
1:50 PM 84.2 °F - 32.0 °F 15% 29.99 in 10.0 mi West 9.2 mph 16.1 mph N/A   Clear
2:50 PM 86.0 °F - 32.0 °F 14% 29.97 in 10.0 mi West 8.1 mph 16.1 mph N/A   Clear
3:50 PM 86.0 °F - 30.2 °F 13% 29.96 in 10.0 mi SSW 12.7 mph 20.7 mph N/A   Clear
4:50 PM 84.2 °F - 30.2 °F 14% 29.96 in 10.0 mi SW 11.5 mph - N/A   Clear
5:45 PM 84.2 °F - 32.0 °F 15% 29.97 in 10.0 mi SW 6.9 mph - N/A   Clear
6:15 PM 80.6 °F - 33.8 °F 18% 29.97 in 10.0 mi West 3.5 mph - N/A   Clear
6:35 PM 77.0 °F - 35.6 °F 22% 29.98 in 10.0 mi West 3.5 mph - N/A   Clear
6:55 PM 75.2 °F - 33.8 °F 22% 29.98 in 10.0 mi West 4.6 mph - N/A   Clear
7:15 PM 71.6 °F - 35.6 °F 27% 29.99 in 10.0 mi West 5.8 mph - N/A   Clear
7:35 PM 68.0 °F - 37.4 °F 33% 29.99 in 10.0 mi West 5.8 mph - N/A   Clear
7:55 PM 66.2 °F - 37.4 °F 35% 30.00 in 10.0 mi West 4.6 mph - N/A   Clear
8:15 PM 64.4 °F - 39.2 °F 40% 30.01 in 10.0 mi ENE 3.5 mph - N/A   Clear
8:35 PM 62.6 °F - 37.4 °F 39% 30.02 in 10.0 mi SE 3.5 mph - N/A   Clear
8:55 PM 62.6 °F - 39.2 °F 42% 30.03 in 10.0 mi Calm Calm - N/A   Clear
9:15 PM 62.6 °F - 37.4 °F 39% 30.03 in 10.0 mi East 4.6 mph - N/A   Clear
9:35 PM 66.2 °F - 35.6 °F 32% 30.03 in 10.0 mi ESE 6.9 mph - N/A   Clear
9:55 PM 64.4 °F - 37.4 °F 37% 30.04 in 10.0 mi SE 6.9 mph - N/A   Clear
10:15 PM 62.6 °F - 37.4 °F 39% 30.05 in 10.0 mi SE 8.1 mph - N/A   Clear
10:35 PM 62.6 °F - 41.0 °F 45% 30.05 in 10.0 mi SE 9.2 mph - N/A   Clear
10:55 PM 64.4 °F - 44.6 °F 49% 30.05 in 10.0 mi SSE 9.2 mph - N/A   Clear
11:15 PM 62.6 °F - 46.4 °F 55% 30.05 in 10.0 mi South 5.8 mph - N/A   Clear
11:35 PM 60.8 °F - 46.4 °F 59% 30.05 in 10.0 mi South 4.6 mph - N/A   Clear
11:55 PM 59.0 °F - 46.4 °F 63% 30.05 in 10.0 mi South 4.6 mph - N/A   Clear